Stations météo

réclame
Mon MeteoGroup
Gardelegen, Allemagne (10359): Température de l'air & dewpoint: 17.10.2018 07:00:00 - 23.10.2018 07:00:00 (CEST)Gardelegen, Allemagne (10359): Température de l'air 5cm & Température de l'air -5cm: 17.10.2018 07:00:00 - 23.10.2018 07:00:00 (CEST)Gardelegen, Allemagne (10359): Température de l'air -20cm & Température de l'air -100cm: 17.10.2018 07:00:00 - 23.10.2018 07:00:00 (CEST)Gardelegen, Allemagne (10359): Vitesse du vent & gusts: 17.10.2018 07:00:00 - 23.10.2018 07:00:00 (CEST)Gardelegen, Allemagne (10359): Direction du vent: 17.10.2018 07:00:00 - 23.10.2018 07:00:00 (CEST)Gardelegen, Allemagne (10359): reduced air pressure: 17.10.2018 07:00:00 - 23.10.2018 07:00:00 (CEST)Gardelegen, Allemagne (10359): visibility: 17.10.2018 07:00:00 - 23.10.2018 07:00:00 (CEST)Gardelegen, Allemagne (10359): Ensoleillement: 17.10.2018 07:00:00 - 23.10.2018 07:00:00 (CEST)Gardelegen, Allemagne (10359): Quantités de précipitations: 17.10.2018 07:00:00 - 23.10.2018 07:00:00 (CEST)
Date & Time tt [°C] td [°C] tt 5cm [°C] tt -5cm [°C] tt -20cm [°C] tt -100cm [°C] ff [km/h] ff [knt] fx [km/h] fx [knt] dd ppp [hPa] vv [km] sd [min] rr [mm]
23.10.2018 07:00:00 7,3 3,1 6,4 5,0 7,6 13,0 22 12 41 22 WSW 1020,3 63 0 0,0
23.10.2018 06:00:00 6,9 2,7 5,5 4,4 7,8 13,0 19 10 34 18 WSW 1022,1 61 0 0,0
23.10.2018 05:00:00 6,0 2,6 3,6 3,9 7,9 13,0 12 6 22 12 SW 1024,1 55 0 0,0
23.10.2018 04:00:00 5,5 2,3 3,1 3,7 8,2 13,0 11 6 18 10 WSW 1025,3 48 0 0,0
23.10.2018 03:00:00 4,5 2,0 2,0 3,5 8,5 13,0 8 5 14 7 SW 1026,4 37 0 0,0
23.10.2018 02:00:00 4,2 2,2 2,0 3,7 8,8 13,0 9 5 16 9 SW 1027,9 38 0 0,0
23.10.2018 01:00:00 3,7 1,9 0,2 3,9 9,2 13,0 6 3 10 6 SW 1029,1 39 0 0,0
23.10.2018 00:00:00 3,4 1,7 -0,5 4,3 9,6 13,0 5 3 10 5 W 1029,9 41 0 0,0
22.10.2018 23:00:00 4,1 1,8 -0,4 5,0 10,1 13,0 4 2 10 5 SW 1030,2 44 0 0,0
22.10.2018 22:00:00 4,9 2,4 0,3 5,7 10,5 13,1 6 3 10 5 W 1030,6 42 0 0,0
22.10.2018 21:00:00 5,4 3,1 1,8 6,6 10,9 13,1 5 3 9 5 SW 1030,3 42 0 0,0
22.10.2018 20:00:00 4,5 3,3 1,3 7,7 11,3 13,1 5 3 8 4 W 1030,6 45 0 0,0
22.10.2018 19:00:00 7,9 4,1 4,0 9,2 11,6 13,1 3 2 10 5 W 1030,1 64 0 0,0
22.10.2018 18:00:00 10,7 3,7 8,3 11,1 11,6 13,1 6 4 12 7 NW 1029,9 70 1 0,0
22.10.2018 17:00:00 11,7 4,8 10,7 12,2 11,5 13,1 9 5 26 14 NNW 1030,0 65 25 0,0
22.10.2018 16:00:00 13,9 4,4 14,5 13,6 11,2 13,1 15 8 31 17 NNW 1028,8 23 55 0,0
22.10.2018 15:00:00 12,7 5,8 12,1 13,4 10,8 13,1 11 6 27 15 NNW 1029,2 57 16 0,0
22.10.2018 14:00:00 12,6 8,2 13,7 13,0 10,4 13,1 14 8 23 13 NW 1029,2 32 25 0,0
22.10.2018 13:00:00 10,6 9,0 10,8 11,0 10,2 13,1 8 5 19 11 NNW 1029,1 46 0 0,5
22.10.2018 12:00:00 9,7 8,6 9,5 10,0 10,0 13,1 14 8 40 21 N 1029,0 8 0 1,1
22.10.2018 11:00:00 9,2 8,6 9,1 9,3 10,0 13,1 5 3 13 7 WNW 1028,0 1,8 0 1,1
22.10.2018 10:00:00 8,9 7,2 8,4 9,0 9,9 13,1 7 4 14 8 W 1027,2 3,6 0 0,1
22.10.2018 09:00:00 9,0 6,3 8,9 8,6 9,9 13,1 5 3 13 7 WSW 1026,5 18 0 0,0
22.10.2018 08:00:00 8,3 5,9 7,9 8,2 9,9 13,2 8 5 11 6 SW 1025,9 16 0 0,0
22.10.2018 07:00:00 7,1 5,7 6,8 7,9 10,0 13,2 6 4 9 5 SSW 1025,9 11 0 0,0
22.10.2018 06:00:00 6,6 5,8 6,7 7,6 10,1 13,2 6 3 10 5 S 1026,1 9 0 0,0
22.10.2018 05:00:00 6,2 5,4 4,9 7,5 10,2 13,2 3 2 12 7 SSE 1025,8 8 0 0,0
22.10.2018 04:00:00 4,7 4,4 4,9 6,7 10,5 13,2 8 4 10 6 SW 1026,1 6 0 0,0
22.10.2018 03:00:00 2,1 1,8 -0,3 6,9 10,8 13,2 3 2 5 3 S 1026,6 3,8 0 0,0
22.10.2018 02:00:00 3,2 2,7 0,2 7,5 11,1 13,2 3 1 5 3 WSW 1027,0 0,4 0 0,0
22.10.2018 01:00:00 4,4 4,2 1,0 8,2 11,4 13,2 2 1 3 1 SSW 1027,2 3,1 0 0,0
22.10.2018 00:00:00 4,9 4,1 4,0 8,7 11,7 13,2 0 0 3 2 N 1027,3 23 0 0,0
21.10.2018 23:00:00 4,2 3,9 2,1 8,6 12,0 13,2 2 1 3 2 W 1027,2 13 0 0,0
21.10.2018 22:00:00 4,8 4,3 1,9 9,3 12,4 13,2 2 1 4 2 SSE 1027,4 12 0 0,0
21.10.2018 21:00:00 6,2 5,8 3,2 10,2 12,7 13,2 3 2 4 2 S 1027,4 10 0 0,0
21.10.2018 20:00:00 6,4 5,2 3,1 11,2 13,0 13,3 2 1 4 2 SSW 1027,6 16 0 0,0
21.10.2018 19:00:00 9,1 7,4 5,0 12,7 13,1 13,3 3 1 4 2 S 1027,6 23 0 0,0
21.10.2018 18:00:00 13,0 8,9 9,6 14,4 13,1 13,3 4 2 10 5 SSE 1027,2 30 48 0,0
21.10.2018 17:00:00 14,5 8,5 13,8 15,7 12,8 13,3 7 4 11 6 WSW 1027,6 31 40 0,0
21.10.2018 16:00:00 15,0 8,0 16,8 17,3 12,3 13,3 9 5 18 10 WSW 1028,1 29 45 0,0
21.10.2018 15:00:00 14,6 8,2 16,3 16,5 11,8 13,3 8 4 17 9 WSW 1028,6 24 9 0,0
21.10.2018 14:00:00 14,2 9,0 17,0 16,5 11,1 13,3 9 5 17 9 WSW 1029,0 15 49 0,0
21.10.2018 13:00:00 13,8 8,9 19,1 15,1 10,5 13,3 10 5 16 9 WSW 1029,3 7 60 0,0
21.10.2018 12:00:00 12,3 8,4 16,3 12,9 10,0 13,3 9 5 16 8 WSW 1030,1 8 45 0,0
21.10.2018 11:00:00 11,4 7,8 16,0 10,6 9,8 13,4 7 4 11 6 W 1030,1 7 32 0,0
21.10.2018 10:00:00 9,1 6,9 10,5 8,8 9,7 13,4 4 2 7 4 SW 1030,2 8 0 0,0
21.10.2018 09:00:00 7,2 5,8 7,3 7,9 9,7 13,4 3 2 6 3 WSW 1029,9 9 0 0,0
21.10.2018 08:00:00 6,0 4,9 6,3 7,5 9,8 13,4 2 1 4 2 SW 1029,6 11 0 0,0
21.10.2018 07:00:00 4,9 4,4 5,2 7,0 10,0 13,4 4 2 5 3 S 1029,4 8 0 0,0
21.10.2018 06:00:00 3,3 2,8 1,0 6,6 10,2 13,4 2 1 5 3 SSE 1029,6 0,9 0 0,0
21.10.2018 05:00:00 5,4 4,8 1,0 7,4 10,4 13,4 4 2 7 4 S 1029,3 10 0 0,0
21.10.2018 04:00:00 5,5 4,3 2,7 8,0 10,5 13,4 4 2 6 3 WSW 1029,5 14 0 0,0
21.10.2018 03:00:00 6,9 5,5 5,4 8,0 10,7 13,4 4 2 5 3 S 1029,7 17 0 0,0
21.10.2018 02:00:00 6,6 5,0 3,6 8,0 10,9 13,5 3 1 9 5 S 1029,9 20 0 0,0
21.10.2018 01:00:00 7,9 5,3 5,2 8,6 11,1 13,5 6 4 10 6 W 1029,6 24 0 0,0
21.10.2018 00:00:00 7,8 5,3 4,6 8,8 11,3 13,5 6 3 9 5 WSW 1029,8 27 0 0,0
20.10.2018 23:00:00 8,3 5,1 6,4 9,2 11,6 13,5 6 4 10 5 W 1029,8 35 0 0,0
20.10.2018 22:00:00 7,3 4,5 5,1 9,5 11,8 13,5 5 3 8 5 SW 1029,8 39 0 0,0
20.10.2018 21:00:00 7,4 4,7 3,7 10,2 12,0 13,5 4 2 7 4 SSW 1029,7 45 0 0,0
20.10.2018 20:00:00 9,2 4,9 5,4 10,9 12,1 13,6 5 3 8 4 SSW 1029,6 45 0 0,0
20.10.2018 19:00:00 10,9 4,9 8,8 12,0 12,1 13,6 6 3 12 6 SW 1029,4 65 0 0,0
20.10.2018 18:00:00 12,4 4,7 11,7 13,1 12,0 13,6 8 5 16 9 WSW 1029,4 61 0 0,0
20.10.2018 17:00:00 13,0 4,4 13,3 13,8 11,8 13,6 11 6 22 12 WNW 1029,6 50 1 0,0
20.10.2018 16:00:00 13,0 3,7 14,4 14,1 11,5 13,6 9 5 18 10 W 1029,3 50 2 0,0
20.10.2018 15:00:00 12,5 3,5 14,2 14,0 11,1 13,6 10 6 22 12 W 1029,6 36 0 0,0
20.10.2018 14:00:00 13,0 3,2 15,8 14,2 10,5 13,7 11 6 21 11 WSW 1029,7 36 11 0,0
20.10.2018 13:00:00 12,4 2,9 15,3 12,8 10,0 13,7 12 6 23 12 WNW 1030,0 23 0 0,0
20.10.2018 12:00:00 11,6 3,4 14,2 11,7 9,6 13,7 12 7 22 12 W 1030,3 20 28 0,0
20.10.2018 11:00:00 10,3 3,7 14,8 9,1 9,5 13,7 9 5 14 8 WSW 1029,9 26 60 0,0
20.10.2018 10:00:00 7,6 3,5 8,6 7,1 9,5 13,7 6 4 10 5 SSW 1029,7 27 57 0,0
20.10.2018 09:00:00 4,9 3,0 3,2 7,1 9,5 13,7 4 2 7 4 SSW 1029,7 21 0 0,0
20.10.2018 08:00:00 4,2 2,4 4,2 6,8 9,6 13,7 3 2 7 4 WSW 1029,0 27 0 0,0
20.10.2018 07:00:00 3,6 2,1 3,4 6,7 9,7 13,7 4 2 5 3 SSW 1028,3 30 0 0,0
20.10.2018 06:00:00 3,0 1,7 3,0 6,5 9,8 13,8 0 0 5 3 N 1028,2 37 0 0,0
20.10.2018 05:00:00 2,9 1,2 3,3 6,6 10,0 13,8 2 1 3 2 W 1028,1 38 0 0,0
20.10.2018 04:00:00 2,1 1,0 2,5 6,4 10,2 13,8 0 0 3 2 N 1028,1 30 0 0,0
20.10.2018 03:00:00 0,8 0,1 0,9 6,0 10,5 13,8 0 0 4 2 N 1027,5 29 0 0,0
20.10.2018 02:00:00 0,4 -0,2 -2,1 6,2 10,8 13,8 0 0 4 2 N 1027,5 19 0 0,0
20.10.2018 01:00:00 0,6 0,0 -0,3 6,6 11,2 13,8 0 0 3 2 N 1027,4 22 0 0,0
20.10.2018 00:00:00 0,9 0,1 -0,8 7,2 11,5 13,8 3 2 5 3 W 1027,1 25 0 0,0
19.10.2018 23:00:00 1,0 0,2 -0,1 7,6 11,9 13,8 0 0 4 2 N 1027,2 25 0 0,0
19.10.2018 22:00:00 1,6 0,6 -0,4 8,2 12,3 13,9 0 0 3 2 N 1027,2 27 0 0,0
19.10.2018 21:00:00 2,0 0,9 -0,4 9,0 12,7 13,9 2 1 4 2 WSW 1027,0 35 0 0,0
19.10.2018 20:00:00 3,9 2,0 0,1 10,2 13,0 13,9 2 1 4 2 N 1026,6 44 0 0,0
19.10.2018 19:00:00 6,8 3,2 2,3 11,8 13,2 13,9 4 2 6 3 S 1026,1 50 0 0,0
19.10.2018 18:00:00 11,5 3,6 8,3 13,7 13,2 13,9 5 3 10 6 N 1025,4 51 44 0,0
19.10.2018 17:00:00 13,5 3,2 12,9 15,0 12,9 13,9 6 3 16 9 N 1025,3 38 60 0,0
19.10.2018 16:00:00 13,9 3,7 15,2 16,8 12,4 13,9 3 2 16 9 NNE 1025,7 29 60 0,0
19.10.2018 15:00:00 13,7 3,5 16,3 16,9 11,7 13,9 8 4 16 9 NNE 1025,9 27 60 0,0
19.10.2018 14:00:00 13,5 4,3 16,2 16,1 10,9 13,9 6 3 15 8 N 1026,3 23 60 0,0
19.10.2018 13:00:00 13,3 4,2 15,9 14,0 10,2 14,0 6 3 14 8 NNE 1026,9 28 60 0,0
19.10.2018 12:00:00 11,3 4,9 14,0 11,3 9,8 14,0 5 3 9 5 ENE 1027,3 43 60 0,0
19.10.2018 11:00:00 9,6 5,0 11,5 8,1 9,7 14,0 2 1 7 4 NNE 1027,5 26 60 0,0
19.10.2018 10:00:00 5,2 2,9 5,3 5,5 9,9 14,0 0 0 3 2 N 1027,3 29 60 0,0
19.10.2018 09:00:00 0,5 -0,4 -0,2 4,9 10,3 14,0 0 0 4 2 N 1027,0 21 29 0,0
19.10.2018 08:00:00 -1,1 -1,6 -3,1 5,1 10,6 14,0 0 0 4 2 N 1026,8 3,8 0 0,0
19.10.2018 07:00:00 -0,7 -1,1 -3,5 5,6 11,0 14,0 0 0 2 1 N 1026,3 0,6 0 0,0
19.10.2018 06:00:00 0,1 -0,1 -2,7 6,2 11,4 14,0 0 0 3 2 N 1026,2 0,7 0 0,0
19.10.2018 05:00:00 1,0 0,7 -2,2 6,8 11,8 14,0 0 0 3 1 N 1026,1 0,5 0 0,0
19.10.2018 04:00:00 2,9 2,2 -1,2 7,6 12,2 14,0 2 1 3 2 SSE 1025,8 28 0 0,0
19.10.2018 03:00:00 3,6 3,3 -0,6 8,4 12,6 14,0 0 0 6 3 N 1025,8 23 0 0,0
19.10.2018 02:00:00 5,7 4,3 1,3 9,4 12,9 14,0 0 0 6 4 N 1026,0 55 0 0,0
19.10.2018 01:00:00 7,9 5,4 5,2 10,4 13,2 14,0 5 3 11 6 N 1025,9 70 0 0,0
19.10.2018 00:00:00 8,9 6,1 6,4 11,5 13,4 14,0 6 4 13 7 N 1025,8 66 0 0,0
18.10.2018 23:00:00 11,2 6,9 10,3 12,3 13,5 14,0 6 3 18 10 N 1025,7 70 0 0,0
18.10.2018 22:00:00 12,0 8,2 11,5 12,5 13,6 14,0 9 5 22 12 N 1025,3 52 0 0,0
18.10.2018 21:00:00 13,0 9,4 12,4 13,0 13,8 14,1 10 6 23 12 N 1024,7 43 0 0,0
18.10.2018 20:00:00 13,5 10,0 12,4 13,3 13,8 14,1 7 4 13 7 N 1023,8 17 0 0,0
18.10.2018 19:00:00 12,5 10,4 11,6 13,7 13,9 14,1 3 1 9 5 S 1023,4 11 0 0,0
18.10.2018 18:00:00 14,5 10,6 12,3 14,8 13,8 14,1 4 2 11 6 N 1022,8 15 0 0,0
18.10.2018 17:00:00 15,3 10,9 15,2 15,3 13,6 14,1 5 3 19 11 NE 1022,6 15 0 0,0
18.10.2018 16:00:00 16,4 10,4 17,6 15,4 13,3 14,1 9 5 19 11 NNW 1022,4 18 2 0,0
18.10.2018 15:00:00 16,3 10,6 17,4 15,2 13,0 14,1 11 6 20 11 NNW 1022,2 16 0 0,0
18.10.2018 14:00:00 15,5 11,7 16,4 14,4 12,7 14,1 7 4 13 7 N 1022,4 12 0 0,0
18.10.2018 13:00:00 15,3 11,6 16,1 14,1 12,5 14,1 6 3 16 9 N 1022,5 11 0 0,0
18.10.2018 12:00:00 14,2 11,2 14,6 13,2 12,2 14,1 9 5 16 9 N 1022,4 12 0 0,0
18.10.2018 11:00:00 13,1 11,4 13,6 12,0 12,1 14,1 11 6 22 12 NW 1022,3 6 0 0,0
18.10.2018 10:00:00 11,3 10,6 11,9 11,0 12,1 14,1 5 3 9 5 WNW 1022,2 2,6 0 0,0
18.10.2018 09:00:00 9,7 9,5 9,9 10,2 12,1 14,1 4 2 5 3 SW 1021,9 0,4 0 0,0
18.10.2018 08:00:00 7,6 7,3 8,0 9,7 12,2 14,1 3 2 5 3 WSW 1021,5 0,5 0 0,0
18.10.2018 07:00:00 6,5 5,9 7,1 9,1 12,5 14,1 0 0 5 3 N 1020,8 4,4 0 0,0
18.10.2018 06:00:00 4,5 3,8 3,0 9,0 12,7 14,1 1 1 5 3 W 1020,5 3,7 0 0,0
18.10.2018 05:00:00 5,1 4,6 3,1 9,3 13,0 14,1 4 2 5 3 WSW 1020,4 2,3 0 0,0
18.10.2018 04:00:00 5,0 4,0 3,3 9,7 13,3 14,1 3 1 6 3 SSW 1020,1 3,5 0 0,0
18.10.2018 03:00:00 5,6 5,1 3,7 10,1 13,7 14,1 0 0 3 1 N 1020,2 3,3 0 0,0
18.10.2018 02:00:00 6,4 6,1 3,9 10,6 14,0 14,1 0 0 3 1 N 1020,1 2,3 0 0,0
18.10.2018 01:00:00 6,7 5,9 4,5 11,1 14,3 14,1 0 0 5 3 N 1020,1 5 0 0,0
18.10.2018 00:00:00 6,9 6,5 4,6 11,6 14,7 14,1 3 1 3 2 S 1020,2 0,5 0 0,0
17.10.2018 23:00:00 8,2 8,0 5,2 12,3 15,1 14,1 0 0 3 2 N 1020,0 0,3 0 0,0
17.10.2018 22:00:00 9,2 8,5 6,0 13,1 15,4 14,1 0 0 2 1 N 1020,1 6 0 0,0
17.10.2018 21:00:00 10,0 8,9 7,0 14,0 15,8 14,1 0 0 2 1 N 1019,7 8 0 0,0
17.10.2018 20:00:00 11,2 9,4 8,0 15,1 16,0 14,1 0 0 3 2 N 1019,4 12 0 0,0
17.10.2018 19:00:00 13,9 10,3 9,8 16,6 16,2 14,1 3 1 4 2 SE 1019,0 13 0 0,0
17.10.2018 18:00:00 18,5 11,2 14,1 18,4 16,0 14,1 3 2 8 5 N 1018,7 7 27 0,0
17.10.2018 17:00:00 21,2 11,0 20,4 19,6 15,7 14,1 5 3 11 6 NNW 1018,5 11 60 0,0
17.10.2018 16:00:00 22,2 10,9 22,7 20,8 15,1 14,1 5 3 10 5 N 1018,5 16 60 0,0
17.10.2018 15:00:00 21,4 10,9 23,2 20,8 14,4 14,1 4 2 10 5 N 1018,8 8 60 0,0
17.10.2018 14:00:00 20,4 11,2 24,0 19,8 13,6 14,1 4 2 8 5 NW 1019,0 8 60 0,0
17.10.2018 13:00:00 18,9 11,8 21,8 17,8 12,9 14,1 3 1 9 5 N 1019,5 8 60 0,0
17.10.2018 12:00:00 16,0 11,6 21,5 15,2 12,5 14,1 5 3 11 6 W 1019,9 7 60 0,0
17.10.2018 11:00:00 14,0 11,0 16,0 12,7 12,3 14,1 3 1 6 3 S 1019,9 7 31 0,0
17.10.2018 10:00:00 10,1 9,5 11,8 10,8 12,3 14,1 3 2 6 3 WSW 1020,0 2,9 0 0,0
17.10.2018 09:00:00 7,9 7,3 8,0 9,5 12,5 14,1 3 2 5 3 E 1019,9 6 0 0,0
17.10.2018 08:00:00 7,1 6,7 6,0 9,3 12,8 14,1 4 2 5 3 SSE 1019,8 4,1 0 0,0
17.10.2018 07:00:00 6,3 6,0 4,6 9,6 13,0 14,1 3 1 5 3 SW 1019,6 2,0 0 0,0

tt = Température de l'air
td = dewpoint
tt 5cm = Température de l'air 5cm
tt -5cm = Température de l'air -5cm
tt -20cm = Température de l'air -20cm
tt -100cm = Température de l'air -100cm
ff = Vitesse du vent
fx = gusts
dd = Direction du vent
ppp = reduced air pressure
vv = visibility
sd = Ensoleillement
rr = Quantités de précipitations

stations d'obs. à proximité